#timestamp,LO_Frequency,Hit,StdDev 
1569301215.4,286046997.2,N
1569301235.2,286046997.4,N
1569301255.1,286046998.4,N
1569301256.0,286046998.4,N
1569301275.8,286046999.4,N
1569301295.7,286046999.3,N
1569301315.5,286047000.9,N
1569301335.3,286047000.0,N
1569301355.2,286047001.5,N
1569301375.0,286047004.3,N
1569301375.9,286047004.3,N
1569301395.8,286047004.0,N
1569301415.6,286047002.0,N
1569301435.4,286047001.6,N
1569301455.3,286047002.2,N
1569301475.1,286047001.2,N
1569301495.9,286047000.6,N
1569301515.7,286047000.4,N
1569301535.5,286047000.9,N
1569301555.4,286047002.3,N
1569301575.2,286047002.2,N
1569301595.0,286047001.0,N
1569301595.9,286047001.0,N
1569301615.8,286047001.1,N
1569301635.6,286046998.2,N
1569301655.5,286047001.1,N
1569301675.3,286047000.8,N
1569301695.1,286047002.1,N
1569301715.9,286047001.6,N
1569301735.7,286047004.1,N
1569301755.6,286047000.3,N
1569301775.4,286047000.9,N
1569301795.2,286046998.2,N
1569301815.1,286046998.3,N
1569301816.0,286046998.3,N
1569301835.8,286046999.2,N
1569301855.6,286047001.1,N
1569301875.5,286046999.0,N
1569301895.3,286046998.9,N
1569301915.2,286047001.0,N
1569301935.9,286047000.6,N
1569301955.7,286047000.2,N
1569301975.6,286047000.7,N
1569301995.4,286047002.8,N
1569302015.3,286047002.1,N
1569302035.1,286046999.9,N
1569302036.0,286046999.9,N
1569302055.8,286047000.2,N
1569302075.7,286047000.2,N
1569302095.5,286047002.3,N
1569302115.4,286047000.5,N
1569302135.2,286046999.8,N
1569302155.0,286046998.2,N
1569302155.9,286046998.2,N
1569302175.8,286047000.0,N
1569302195.6,286046999.7,N
1569302215.4,286047000.1,N
1569302235.3,286047002.4,N
1569302255.1,286047003.0,N
1569302275.9,286047003.4,N
1569302295.7,286047003.9,N
1569302315.5,286047004.3,N
1569302335.4,286047001.9,N
1569302355.2,286047002.8,N
1569302375.0,286046999.8,N
1569302376.0,286046999.8,N
1569302395.8,286047000.0,N
1569302415.6,286047002.4,N
1569302435.5,286047000.7,N
1569302455.3,286047000.0,N
1569302475.1,286047004.4,N
1569302495.9,286047001.3,N
1569302515.7,286047001.6,N
1569302535.6,286047003.7,N
1569302555.4,286047004.0,N
1569302575.2,286047001.5,N
1569302595.1,286047002.3,N
1569302596.0,286047002.3,N
1569302615.8,286047002.7,N
1569302635.7,286047001.4,N
1569302655.5,286047004.3,N
1569302675.3,286047005.9,Y
1569302695.2,286047002.1,P
1569302715.0,286047003.9,P
1569302715.9,286047003.9,P
1569302735.8,286047003.9,Y
1569302755.6,286047000.4,P
1569302775.4,286047000.4,N
1569302795.3,286046998.4,N
1569302815.1,286047000.5,N
1569302835.8,286046999.7,N
1569302855.7,286047000.9,N
1569302875.5,286046998.5,N
1569302895.4,286046998.9,N
1569302915.2,286046998.5,N
1569302935.0,286047001.2,N
1569302935.9,286047001.2,N
1569302955.8,286047000.7,N
1569302975.6,286047000.0,N
1569302995.5,286047000.5,N
1569303015.3,286047001.1,N
1569303035.1,286047000.9,N
1569303055.9,286046999.7,N
1569303075.7,286047000.0,N
1569303095.6,286046998.6,N
1569303115.4,286046998.4,N
1569303135.2,286046999.3,N
1569303155.1,286046999.1,N
1569303156.0,286046999.1,N
1569303175.8,286046998.2,N
1569303195.6,286046998.6,N
1569303215.5,286047000.7,N
1569303235.3,286046998.3,N
1569303255.2,286047001.1,N
1569303275.9,286047000.1,N
1569303295.7,286047000.5,N
1569303315.6,286047000.3,N
1569303335.4,286047000.6,N
1569303355.2,286047000.7,N
1569303375.1,286046999.5,N
1569303376.0,286046999.5,N
1569303395.8,286046998.2,N
1569303415.7,286046998.1,N
1569303435.5,286046996.6,Y
1569303455.3,286046996.6,P
1569303475.2,286046998.4,N
1569303495.0,286046998.3,N
1569303495.9,286046998.3,N
1569303515.8,286046998.4,N
1569303535.6,286046998.1,N
1569303555.4,286046996.5,Y
1569303575.3,286047000.9,P
1569303595.1,286047002.0,N
1569303615.9,286047001.3,N
1569303635.7,286047002.5,N
1569303655.5,286047000.5,N
1569303675.4,286046998.1,N
1569303695.2,286047000.7,N
1569303715.0,286047000.7,N
1569303715.9,286047000.7,N
1569303735.8,286046998.5,N
1569303755.6,286046998.5,N
1569303775.5,286047000.4,N
1569303795.3,286046999.9,N
1569303815.1,286047000.0,N
1569303835.9,286047001.5,N
1569303855.7,286047002.4,N
1569303875.5,286047002.8,N
1569303895.4,286047000.2,N
1569303915.2,286047002.8,N
1569303935.1,286047002.6,N
1569303936.0,286047002.6,N
1569303955.8,286047002.8,N
1569303975.6,286047000.8,N
1569303995.5,286047000.5,N
1569304015.3,286047002.4,N
1569304035.2,286047003.9,N
1569304055.9,286047003.5,N
1569304075.7,286047001.7,N
1569304095.6,286047002.2,N
1569304115.4,286047004.1,N
1569304135.2,286047005.9,Y
1569304155.1,286047003.6,P
1569304156.0,286047003.6,P
1569304175.8,286047004.1,P
1569304195.7,286047004.2,Y
1569304215.5,286046999.8,P
1569304235.3,286047001.5,N
1569304255.2,286047001.7,N
1569304275.0,286047001.7,N
1569304275.9,286047001.7,N
1569304295.8,286047004.4,Y
1569304315.6,286047002.4,P
1569304335.4,286046999.8,N
1569304355.3,286046999.7,N
1569304375.1,286047000.3,N
1569304395.9,286047000.6,N
1569304415.7,286047002.8,N
1569304435.5,286047000.5,N
1569304455.4,286047000.3,N
1569304475.2,286047000.7,N
1569304495.1,286047001.2,N
1569304496.0,286047001.2,N
1569304515.8,286046999.9,N
1569304535.6,286047000.7,N
1569304555.5,286047000.8,N
1569304575.3,286047001.1,N
1569304595.1,286047000.6,N
1569304615.9,286047000.7,N
1569304635.7,286047000.9,N
1569304655.6,286047001.0,N
1569304675.4,286047001.2,N
1569304695.2,286047000.9,N
1569304715.1,286047000.4,N
1569304716.0,286047000.4,N
1569304735.8,286046998.5,N
1569304755.7,286046999.0,N
1569304775.5,286046999.6,N
1569304795.3,286046999.0,N
